Location: Atbuku
(36.4936°N, 30.4362°E)
Time: 04:50:45
(UTC+00:00)

COSMOS 2455 - Pass Details

Date: 11 December 2025
Orbit: 898 x 910 km, 67.1° (Epoch: 13 January)

Event Time Altitude Azimuth Distance (km) Brightness Sun altitude
Rises 17:21:15 0° 217° (SW) 3,514 6.5 -31.0°
Reaches altitude 10° 17:23:47 10° 222° (SW) 2,578 5.7 -31.5°
Maximum altitude 17:29:39 56° 300° (WNW) 1,066 3.3 -32.6°
Enters shadow 17:29:39 56° 300° (WNW) 1,066 3.3 -32.6°
